カタログに戻る

STARLINK-36983

運用中通信VLEO
NORAD 68323·PAYLOAD·🇺🇸 United States

打ち上げ Mar 22, 2026 から Cape Canaveral Space Force Station

Loading…

次のパス (今後24時間)

TLE

最新Source: CelesTrak SupGP

元期: Sep 14, 2026, 21:18 UTC

1 68323C 26059C   26257.88798611  .00079251  00000+0  23347-2 0  2575
2 68323  53.1588 181.8936 0001121  99.1647  99.7610 15.34442177    12

AllMySatでSTARLINK-36983をリアルタイム追跡

Download on the App Store